Petersburg, AK

7:20 PM AKDT on June 27, 2017 (GMT -0800)
Johnson Petersburg

Weather History for PAPG - March, 2013

Change the Weather History Date:

Sunday, March 31, 2013

  Actual Average Record
Temperature  
Mean Temperature 38 °F -  
Max Temperature 44 °F 40 °F 53 °F (2016)
Min Temperature 33 °F 28 °F 24 °F (2007)
Degree Days  
Heating Degree Days 26    
Moisture  
Dew Point 35 °F    
Average Humidity 87    
Maximum Humidity 93    
Minimum Humidity 76    
Precipitation  
Precipitation 0.00 in - - ()
Sea Level Pressure  
Sea Level Pressure 30.24 in    
Wind  
Wind Speed 2 mph (East)    
Max Wind Speed 6 mph    
Max Gust Speed -    
Visibility 7 miles    
Events      
Averages and records for this station are not official NWS values.
T = Trace of Precipitation, MM = Missing Value Source: NWS Daily Summary

Daily Weather History Graph

Daily Weather History Graph

Search for Another Location

Airport or City:

Trip Planner

Search our weather history database for the weather conditions in past years. The results will help you decide how hot, cold, wet, or windy it might be!

Date:

Astronomy

Mar. 31, 2013 Rise Set
Actual Time 6:22 AM AKDT 7:29 PM AKDT
Civil Twilight 5:44 AM AKDT 8:08 PM AKDT
Nautical Twilight 4:56 AM AKDT 8:56 PM AKDT
Astronomical Twilight 4:04 AM AKDT 9:50 PM AKDT
Moon 12:33 AM AKDT (3/31) 8:25 AM AKDT (3/31)
Length of Visible Light 14h 24m
Length of Day
13h 07m
Waning Gibbous, 76% of the Moon is Illuminated
Mar 31
Waning Gibbous
Apr 2
Last Quarter
Apr 10
New
Apr 18
First Quarter
Apr 25
Full

Hourly Weather History & Observations

Time (AKDT) Temp. Windchill Dew Point Humidity Pressure Visibility Wind Dir Wind Speed Gust Speed Precip Events Conditions
12:16 AM 37.4 °F - 35.6 °F 93% 30.38 in 0.8 mi Calm Calm - N/A   Overcast
12:36 AM 37.4 °F - 35.6 °F 93% 30.38 in 0.2 mi Calm Calm - N/A   Overcast
12:56 AM 37.4 °F - 35.6 °F 93% 30.38 in 0.2 mi Calm Calm - N/A   Overcast
1:16 AM 37.4 °F - 35.6 °F 93% 30.37 in 0.2 mi Calm Calm - N/A   Overcast
1:36 AM 37.4 °F - 35.6 °F 93% 30.36 in 0.2 mi Calm Calm - N/A   Overcast
1:56 AM 37.4 °F - 35.6 °F 93% 30.36 in 0.8 mi Calm Calm - N/A   Overcast
2:16 AM 37.4 °F - 35.6 °F 93% 30.36 in 4.0 mi Calm Calm - N/A   Mostly Cloudy
2:36 AM 37.4 °F - 35.6 °F 93% 30.36 in 8.0 mi Calm Calm - N/A   Overcast
2:56 AM 37.4 °F - 33.8 °F 87% 30.35 in 10.0 mi Calm Calm - N/A   Overcast
3:16 AM 37.4 °F - 35.6 °F 93% 30.35 in 10.0 mi Calm Calm - N/A   Overcast
3:36 AM 37.4 °F - 35.6 °F 93% 30.35 in 1.8 mi Calm Calm - N/A   Overcast
3:56 AM 37.4 °F - 35.6 °F 93% 30.35 in 4.0 mi Calm Calm - N/A   Overcast
4:16 AM 37.4 °F - 33.8 °F 87% 30.35 in 2.5 mi Calm Calm - N/A   Overcast
4:36 AM 37.4 °F - 33.8 °F 87% 30.34 in 1.5 mi Calm Calm - N/A   Overcast
4:56 AM 35.6 °F - 33.8 °F 93% 30.33 in 1.0 mi Calm Calm - N/A   Overcast
5:16 AM 37.4 °F 34.9 °F 33.8 °F 87% 30.33 in 0.5 mi WSW 3.5 mph - N/A   Mostly Cloudy
5:36 AM 37.4 °F 34.9 °F 35.6 °F 93% 30.33 in 0.8 mi SW 3.5 mph - N/A   Overcast
5:56 AM 37.4 °F - 35.6 °F 93% 30.32 in 1.0 mi Calm Calm - N/A   Overcast
6:16 AM 35.6 °F - 33.8 °F 93% 30.32 in 1.0 mi Calm Calm - N/A   Overcast
6:36 AM 37.4 °F - 33.8 °F 87% 30.32 in 1.0 mi Calm Calm - N/A   Overcast
6:56 AM 37.4 °F - 35.6 °F 93% 30.32 in 1.0 mi Calm Calm - N/A   Overcast
7:16 AM 37.4 °F - 35.6 °F 93% 30.32 in 1.0 mi Calm Calm - N/A   Overcast
7:36 AM 37.4 °F 34.9 °F 35.6 °F 93% 30.31 in 1.0 mi SW 3.5 mph - N/A   Overcast
7:56 AM 37.4 °F - 35.6 °F 93% 30.31 in 1.0 mi Calm Calm - N/A   Overcast
8:16 AM 37.4 °F - 35.6 °F 93% 30.31 in 1.0 mi Calm Calm - N/A   Overcast
8:36 AM 39.2 °F - 35.6 °F 87% 30.30 in 1.0 mi Calm Calm - N/A   Overcast
8:56 AM 39.2 °F - 35.6 °F 87% 30.30 in 2.0 mi Calm Calm - N/A   Overcast
9:16 AM 39.2 °F - 37.4 °F 93% 30.29 in 2.0 mi Calm Calm - N/A   Overcast
9:36 AM 39.2 °F - 37.4 °F 93% 30.29 in 2.0 mi Calm Calm - N/A   Overcast
9:56 AM 39.2 °F 37.0 °F 37.4 °F 93% 30.28 in 10.0 mi NE 3.5 mph - N/A   Overcast
10:16 AM 39.2 °F 35.0 °F 37.4 °F 93% 30.28 in 10.0 mi NE 5.8 mph - N/A   Overcast
10:36 AM 39.2 °F 35.9 °F 37.4 °F 93% 30.28 in 10.0 mi ENE 4.6 mph - N/A   Overcast
10:56 AM 39.2 °F 35.0 °F 37.4 °F 93% 30.28 in 10.0 mi NE 5.8 mph - N/A   Mostly Cloudy
11:16 AM 41.0 °F 37.1 °F 37.4 °F 87% 30.28 in 10.0 mi NNE 5.8 mph - N/A   Mostly Cloudy
11:36 AM 42.8 °F 39.3 °F 37.4 °F 81% 30.27 in 10.0 mi ENE 5.8 mph - N/A   Mostly Cloudy
11:56 AM 42.8 °F 39.3 °F 37.4 °F 81% 30.27 in 10.0 mi East 5.8 mph - N/A   Scattered Clouds
12:16 PM 42.8 °F 39.3 °F 37.4 °F 81% 30.27 in 10.0 mi NE 5.8 mph - N/A   Scattered Clouds
12:36 PM 42.8 °F 40.1 °F 37.4 °F 81% 30.26 in 10.0 mi ENE 4.6 mph - N/A   Scattered Clouds
12:56 PM 42.8 °F 41.1 °F 37.4 °F 81% 30.25 in 10.0 mi East 3.5 mph - N/A   Scattered Clouds
1:16 PM 44.6 °F 41.4 °F 37.4 °F 76% 30.24 in 10.0 mi East 5.8 mph - N/A   Scattered Clouds
1:36 PM 44.6 °F 43.1 °F 37.4 °F 76% 30.24 in 10.0 mi ENE 3.5 mph - N/A   Scattered Clouds
1:56 PM 42.8 °F 39.3 °F 37.4 °F 81% 30.23 in 10.0 mi ENE 5.8 mph - N/A   Scattered Clouds
2:16 PM 42.8 °F 40.1 °F 37.4 °F 81% 30.23 in 10.0 mi ENE 4.6 mph - N/A   Scattered Clouds
2:36 PM 42.8 °F 39.3 °F 37.4 °F 81% 30.22 in 10.0 mi East 5.8 mph - N/A   Scattered Clouds
2:56 PM 42.8 °F 39.3 °F 35.6 °F 76% 30.21 in 10.0 mi East 5.8 mph - N/A   Scattered Clouds
4:16 PM 42.8 °F 40.1 °F 35.6 °F 76% 30.18 in 10.0 mi East 4.6 mph - N/A   Overcast
4:36 PM 42.8 °F 39.3 °F 35.6 °F 76% 30.18 in 10.0 mi East 5.8 mph - N/A   Overcast
4:56 PM 42.8 °F 40.1 °F 35.6 °F 76% 30.17 in 10.0 mi ENE 4.6 mph - N/A   Overcast
5:16 PM 42.8 °F 39.3 °F 35.6 °F 76% 30.16 in 10.0 mi ENE 5.8 mph - N/A   Overcast
5:36 PM 42.8 °F 39.3 °F 35.6 °F 76% 30.15 in 10.0 mi East 5.8 mph - N/A   Overcast
5:56 PM 42.8 °F 40.1 °F 35.6 °F 76% 30.14 in 10.0 mi ENE 4.6 mph - N/A   Scattered Clouds
6:16 PM 42.8 °F 41.1 °F 35.6 °F 76% 30.14 in 10.0 mi East 3.5 mph - N/A   Scattered Clouds
6:36 PM 41.0 °F 39.0 °F 35.6 °F 81% 30.13 in 10.0 mi East 3.5 mph - N/A   Scattered Clouds
6:56 PM 41.0 °F 39.0 °F 35.6 °F 81% 30.12 in 10.0 mi East 3.5 mph - N/A   Scattered Clouds
7:16 PM 39.2 °F 37.0 °F 35.6 °F 87% 30.12 in 10.0 mi East 3.5 mph - N/A   Scattered Clouds
7:36 PM 39.2 °F 37.0 °F 35.6 °F 87% 30.11 in 10.0 mi ESE 3.5 mph - N/A   Scattered Clouds
7:56 PM 39.2 °F 35.9 °F 33.8 °F 81% 30.11 in 10.0 mi SE 4.6 mph - N/A   Mostly Cloudy
8:16 PM 39.2 °F 37.0 °F 33.8 °F 81% 30.11 in 10.0 mi ESE 3.5 mph - N/A   Mostly Cloudy
8:36 PM 39.2 °F 37.0 °F 33.8 °F 81% 30.10 in 10.0 mi SE 3.5 mph - N/A   Mostly Cloudy
8:56 PM 37.4 °F 34.9 °F 33.8 °F 87% 30.10 in 10.0 mi SE 3.5 mph - N/A   Scattered Clouds
9:16 PM 35.6 °F 32.8 °F 30.2 °F 81% 30.09 in 10.0 mi SSW 3.5 mph - N/A   Scattered Clouds
9:36 PM 35.6 °F 32.8 °F 33.8 °F 93% 30.09 in 10.0 mi South 3.5 mph - N/A   Scattered Clouds
9:56 PM 33.8 °F 29.6 °F 30.2 °F 87% 30.08 in 10.0 mi South 4.6 mph - N/A   Partly Cloudy
10:16 PM 35.6 °F - 32.0 °F 87% 30.08 in 10.0 mi Calm Calm - N/A   Mostly Cloudy
10:36 PM 33.8 °F - 30.2 °F 87% 30.07 in 10.0 mi Calm Calm - N/A   Overcast
10:56 PM 33.8 °F 30.8 °F 32.0 °F 93% 30.07 in 10.0 mi SW 3.5 mph - N/A   Overcast
11:16 PM 35.6 °F - 33.8 °F 93% 30.06 in 10.0 mi Calm Calm - N/A   Overcast
11:36 PM 35.6 °F - 32.0 °F 87% 30.06 in 10.0 mi Calm Calm - N/A   Overcast